User: anonymous   Login
Location: Unspecified
(0.0000°N, 0.0000°E)
Time: 00:17:11
(UTC+00:00)
Language:

CUTE 1.7 + AOD 2 - Orbit

View from above orbital plane
View from above orbital plane
View from above satellite
View from above satellite

Ground track
Ground track

The orbit data is extracted from the following two-line orbital elements,

1 32785U 08021C   17054.85458739  .00000403  00000-0  49742-4 0  9999
2 32785  97.5778  84.2413 0013248 177.4427 182.6860 14.87801447478040
Epoch (UTC): 23 February 2017 20:30:36
Eccentricity: 0.0013248
inclination: 97.5778°
perigee height: 595 km
apogee height: 614 km
right ascension of ascending node: 84.2413°
argument of perigee: 177.4427°
revolutions per day: 14.87801447
mean anomaly at epoch: 182.6860°
orbit number at epoch: 47804

The dashed part of the orbit path shows where the satellite is in the earth's shadow,  

DLR